Wind_Speed
18 19 20 20 20 21 22 23 24 24 23 21 21 19 19 17 24 29 27 30 35 28 26 25 23 26 27 26 26 25 23 20 19 17 17 18 19 20 18 17 17 17 18
15 17 20 21 22 22 22 23 24 24 23 21 20 19 19 19 19 23 27 26 21 31 36 30 30 27 28 30 31 28 26 23 23 21 18 19 20 22 22 22 21 21 19
14 16 18 20 21 22 23 23 23 23 22 23 20 20 17 16 18 23 23 24 27 28 30 30 28 32 33 33 34 36 31 27 24 25 22 15 20 19 21 26 22 23 23
14 15 16 18 19 21 21 20 22 23 22 23 22 21 19 19 21 24 23 27 32 22 28 30 28 27 33 34 36 32 36 32 29 24 30 31 22 12 14 18 19 19 27
14 16 17 17 17 18 19 19 20 21 22 22 22 21 20 20 19 20 26 25 27 31 26 20 22 29 33 35 34 35 31 35 32 30 26 25 24 34 22 19 12 16 19
18 18 18 16 16 17 18 17 18 19 21 21 21 21 22 22 21 21 21 24 25 25 24 19 18 26 38 36 44 37 37 33 34 30 32 30 27 22 25 28 30 30 21
19 20 19 17 16 16 16 16 17 18 19 20 21 21 21 21 21 21 20 23 26 23 23 22 19 13 26 32 40 40 41 40 38 36 36 34 34 30 27 25 29 28 26
16 17 15 16 14 15 16 16 17 18 19 19 19 20 20 20 20 21 21 19 21 21 26 26 21 22 15 18 35 56 38 40 29 33 34 35 35 34 34 36 30 27 29
13 15 16 13 13 13 14 15 17 18 19 19 19 19 20 20 20 20 20 20 20 21 21 24 22 21 21 20 22 32 44 30 26 24 25 34 38 37 34 35 37 35 32
12 14 14 13 12 13 13 14 16 17 19 19 19 19 20 20 20 19 20 21 22 22 22 22 21 21 21 25 20 22 22 41 43 39 35 34 33 34 36 39 37 39 40
12 13 13 11 11 12 12 13 15 17 19 19 20 20 20 20 20 19 20 20 21 22 24 24 22 20 19 20 24 24 23 26 19 33 41 44 40 35 36 36 39 40 39
12 13 12 11 12 13 12 13 14 16 18 19 20 20 20 20 20 20 21 21 20 20 21 23 22 20 19 22 25 25 27 28 24 25 28 45 44 46 44 46 44 37 38
14 13 13 13 14 14 14 14 14 16 17 19 19 19 19 20 20 21 21 21 21 20 19 20 21 20 20 23 26 26 25 26 26 26 24 39 36 34 48 51 47 39 41
13 13 14 14 14 15 16 16 16 17 18 18 17 18 19 19 20 20 20 20 20 20 20 20 20 18 19 23 25 28 28 26 27 28 32 26 29 39 34 49 34 34 42
14 14 14 15 16 17 17 17 16 17 19 18 18 18 18 19 20 21 21 21 20 20 19 19 22 20 18 23 27 28 28 27 25 25 26 29 34 32 32 24 34 40 41
17 17 17 17 18 17 18 16 16 16 17 17 18 18 18 19 19 20 20 20 20 20 20 18 18 21 19 23 26 26 27 27 24 26 24 25 25 33 36 36 39 27 40
18 19 18 19 18 18 16 15 15 16 16 17 17 18 18 18 18 19 20 20 20 20 21 19 19 19 19 27 28 25 25 26 25 23 26 25 23 26 31 37 40 41 40
19 20 19 18 18 17 16 15 16 16 17 17 17 17 17 17 18 18 19 19 20 21 21 20 20 19 17 27 29 27 24 24 24 25 23 25 26 24 27 30 35 39 39
18 21 21 20 20 20 18 16 16 17 17 17 16 16 16 17 18 19 20 19 20 20 21 20 21 20 19 24 31 27 27 23 22 23 25 21 25 25 25 29 32 33 37
23 24 24 24 22 21 20 18 17 17 18 17 16 15 16 17 19 20 20 20 20 21 21 22 22 21 21 21 30 28 25 24 26 27 24 22 25 27 24 28 30 34 33
32 31 30 29 27 23 19 20 19 18 17 16 15 16 16 17 18 20 20 21 21 22 23 24 24 23 21 21 25 28 27 27 31 28 27 26 28 29 28 25 26 30 33
36 35 36 34 28 24 20 20 21 18 16 15 16 16 17 18 18 20 21 21 21 22 22 24 24 21 24 23 27 27 25 27 31 31 32 32 29 28 29 27 26 27 27
32 29 29 32 31 24 21 18 20 16 15 15 17 17 18 18 18 20 19 21 20 20 21 23 27 28 27 27 29 27 25 29 29 30 33 33 31 29 27 26 27 26 25
33 32 30 31 30 24 21 18 19 15 14 15 17 18 19 20 20 19 19 19 20 21 21 23 27 31 31 30 27 29 31 30 29 31 34 34 31 29 28 26 24 23 24
32 32 32 31 30 25 19 17 17 15 15 15 16 18 18 19 21 21 21 22 23 23 29 34 32 33 32 30 30 30 30 32 33 35 36 32 29 28 28 26 24 22 22
30 31 31 31 26 18 17 19 16 14 15 16 16 16 19 20 21 22 25 26 30 31 32 36 32 33 32 32 32 30 29 31 32 33 32 31 29 29 28 28 27 25 24
Wind_Direction
15 16 17 14 11 10 9 6 1 359 357 352 348 341 334 294 267 269 271 279 244 242 245 234 235 233 231 231 234 235 232 230 233 236 241 245 248 242 237 236 239 241 240
16 14 13 11 11 10 9 8 3 358 357 352 348 339 334 325 310 276 281 273 281 262 254 246 238 229 238 232 228 230 230 237 229 231 239 245 248 248 247 237 234 236 236
10 9 7 6 5 4 4 5 4 359 354 353 347 342 342 329 314 290 274 270 263 263 252 258 247 241 233 234 232 225 227 229 237 233 227 236 245 253 250 242 230 232 236
0 359 357 358 359 357 358 360 3 360 355 355 354 351 344 336 330 326 311 289 269 289 252 262 265 251 244 232 231 234 228 228 229 236 238 232 240 275 272 237 237 232 231
349 341 340 342 344 350 353 352 356 358 358 357 356 354 345 337 332 328 324 314 303 287 286 274 283 256 255 248 235 224 231 226 232 227 238 240 250 242 252 262 239 235 234
331 328 323 325 332 340 347 350 352 354 354 357 357 353 350 346 339 336 334 328 322 317 305 303 271 260 271 263 241 229 226 231 229 230 233 240 243 246 245 247 253 260 255
330 329 327 319 327 335 344 349 350 353 351 353 354 356 351 349 347 342 336 332 327 327 324 314 295 288 250 253 242 239 241 234 234 240 236 237 240 245 245 246 251 254 256
341 341 339 333 329 334 340 347 349 349 350 350 352 351 351 349 345 344 341 338 332 330 327 319 327 292 297 277 253 261 275 234 237 240 245 249 246 242 244 241 249 254 254
347 343 342 341 337 332 337 344 346 346 347 348 350 350 350 348 345 344 344 341 337 333 326 324 325 319 302 258 239 239 268 244 252 253 257 254 254 249 241 245 242 242 251
344 345 341 345 327 329 330 337 342 346 344 345 348 346 346 345 344 343 340 341 342 339 334 331 328 326 324 302 280 260 254 252 254 265 264 264 259 256 255 246 243 244 245
339 344 342 338 332 329 325 330 336 341 344 344 343 343 343 343 344 343 343 341 340 342 342 335 328 326 330 321 295 279 280 263 266 249 262 262 262 259 253 254 252 241 242
325 330 334 326 323 328 322 322 329 334 339 340 338 339 339 341 342 342 342 343 344 342 342 338 331 331 331 321 308 305 295 291 285 273 274 264 268 254 259 257 250 246 247
318 320 322 318 315 318 318 314 319 325 332 334 334 335 337 338 340 340 341 342 343 343 341 335 343 338 334 316 313 313 307 305 295 285 263 254 262 270 253 249 250 248 251
306 314 319 316 313 313 315 310 313 320 327 331 333 332 333 335 336 336 338 341 341 342 340 337 338 341 336 322 317 317 317 313 303 296 283 284 264 256 284 244 259 269 258
296 302 309 312 308 307 308 306 305 314 320 325 328 328 329 331 332 334 336 337 338 339 339 338 333 334 327 318 320 322 324 322 316 302 307 291 278 279 267 273 265 265 263
292 299 299 304 307 306 304 298 300 306 314 318 321 323 326 328 328 330 332 333 333 335 336 337 338 333 331 313 318 322 325 320 321 316 304 301 298 282 279 270 259 261 252
288 295 294 298 303 305 301 294 296 303 308 312 316 317 321 322 323 324 328 327 328 327 332 334 334 332 331 317 326 330 323 319 320 315 314 308 302 298 286 279 276 265 263
281 295 297 297 298 301 298 291 292 298 304 306 309 313 315 317 319 320 322 322 323 325 328 327 327 326 325 313 324 330 327 322 317 311 308 312 306 305 298 291 281 275 273
283 286 287 288 291 295 294 288 291 296 299 302 302 308 313 315 316 317 317 320 318 318 320 319 319 319 316 315 312 322 323 324 318 314 313 308 307 300 303 298 293 284 276
289 288 288 286 282 285 287 285 287 292 294 295 298 305 309 311 310 311 313 314 313 312 311 311 312 309 313 307 304 316 319 318 315 317 316 312 302 305 299 299 298 294 292
288 288 284 281 278 273 272 279 285 288 291 289 298 303 306 306 305 306 308 310 309 307 307 308 307 308 307 309 306 311 317 315 313 316 314 310 307 306 300 293 289 295 298
287 284 283 282 273 266 263 272 279 286 283 288 295 300 302 302 301 303 303 304 305 305 306 307 309 306 306 305 298 305 310 310 311 309 310 309 310 307 304 298 289 286 293
289 285 284 280 277 267 259 261 273 277 278 286 293 297 299 299 300 299 303 301 302 303 305 307 307 309 307 307 308 309 306 301 304 305 305 306 309 308 306 300 295 287 287
287 283 283 282 276 263 260 258 266 268 274 282 291 295 298 296 297 299 297 296 297 298 301 304 302 301 305 307 309 303 302 304 305 304 301 305 306 306 308 308 305 298 289
290 283 282 280 274 262 257 256 259 263 272 281 288 292 294 294 294 296 294 292 290 290 296 303 305 304 304 305 304 307 305 304 304 306 304 304 306 306 308 308 310 309 306
291 286 281 280 267 254 254 254 255 261 271 280 287 289 291 294 294 296 297 292 292 299 299 305 306 311 303 301 305 308 303 303 305 303 301 303 304 305 309 311 312 311 312
Height
1601 1600 1599 1598 1595 1590 1586 1583 1580 1576 1572 1569 1568 1566 1563 1560 1560 1555 1559 1540 1552 1558 1560 1557 1563 1569 1572 1575 1578 1580 1582 1584 1586 1588 1589 1590 1590 1589 1590 1591 1591 1592 1592
1604 1603 1601 1598 1596 1593 1589 1585 1582 1578 1574 1571 1569 1567 1563 1560 1556 1549 1545 1547 1540 1551 1552 1544 1549 1558 1564 1568 1571 1574 1576 1578 1581 1583 1585 1584 1586 1584 1584 1585 1585 1586 1588
1606 1604 1602 1600 1598 1594 1590 1586 1583 1580 1576 1572 1569 1565 1563 1561 1556 1548 1543 1542 1545 1543 1523 1545 1540 1543 1552 1557 1562 1565 1568 1572 1575 1577 1579 1579 1578 1579 1577 1575 1578 1581 1581
1607 1605 1603 1601 1598 1595 1592 1589 1585 1581 1578 1573 1569 1565 1563 1560 1557 1550 1543 1536 1531 1533 1535 1526 1540 1536 1543 1549 1553 1557 1559 1564 1567 1571 1571 1572 1573 1573 1573 1572 1570 1573 1575
1608 1606 1603 1601 1599 1596 1593 1589 1586 1583 1579 1574 1570 1566 1563 1560 1557 1553 1546 1538 1531 1527 1529 1534 1528 1532 1536 1542 1546 1549 1550 1553 1557 1562 1566 1566 1568 1570 1571 1570 1570 1569 1569
1605 1604 1603 1600 1599 1596 1593 1590 1587 1584 1580 1576 1571 1567 1564 1559 1556 1552 1548 1541 1533 1528 1524 1525 1529 1531 1526 1536 1537 1540 1543 1545 1548 1552 1557 1561 1562 1563 1565 1566 1566 1565 1566
1603 1602 1600 1598 1597 1595 1593 1589 1586 1583 1580 1576 1571 1568 1563 1560 1557 1553 1549 1544 1537 1531 1527 1524 1524 1526 1527 1516 1531 1529 1535 1538 1538 1542 1546 1550 1553 1556 1558 1559 1559 1561 1560
1603 1602 1598 1596 1595 1594 1592 1589 1586 1583 1580 1576 1572 1568 1563 1560 1557 1553 1549 1545 1540 1535 1530 1524 1523 1523 1523 1525 1520 1518 1522 1523 1531 1532 1536 1540 1543 1546 1549 1550 1553 1553 1553
1601 1599 1598 1596 1595 1593 1591 1589 1586 1583 1580 1576 1571 1568 1563 1559 1555 1552 1548 1544 1540 1535 1531 1526 1522 1520 1519 1519 1517 1515 1518 1512 1523 1525 1527 1531 1533 1535 1538 1541 1543 1545 1544
1600 1598 1596 1595 1594 1592 1591 1588 1586 1582 1579 1574 1570 1566 1562 1558 1555 1551 1547 1543 1538 1533 1528 1524 1520 1518 1516 1513 1510 1516 1514 1510 1513 1516 1519 1523 1525 1525 1526 1529 1533 1535 1536
1599 1597 1595 1594 1593 1591 1589 1587 1585 1581 1578 1573 1569 1565 1561 1557 1553 1549 1546 1542 1537 1531 1526 1522 1517 1514 1513 1511 1508 1506 1503 1505 1499 1504 1511 1513 1517 1517 1517 1519 1520 1522 1525
1598 1596 1594 1593 1591 1589 1587 1586 1583 1580 1576 1572 1568 1564 1560 1555 1551 1548 1544 1540 1536 1532 1527 1521 1514 1511 1510 1506 1503 1501 1498 1497 1496 1499 1500 1507 1510 1507 1509 1510 1510 1511 1517
1596 1594 1592 1591 1589 1587 1585 1583 1581 1578 1575 1570 1566 1563 1558 1554 1550 1546 1541 1537 1534 1530 1526 1521 1514 1510 1508 1504 1500 1497 1497 1496 1493 1494 1495 1497 1496 1488 1494 1501 1501 1501 1501
1592 1591 1589 1588 1586 1584 1582 1579 1577 1575 1572 1568 1564 1560 1556 1552 1548 1544 1539 1535 1532 1528 1525 1520 1515 1511 1507 1504 1500 1496 1492 1491 1489 1488 1489 1488 1490 1492 1490 1482 1488 1487 1487
1588 1587 1586 1585 1583 1581 1578 1576 1573 1571 1568 1565 1561 1558 1554 1550 1545 1541 1537 1533 1530 1527 1523 1519 1514 1509 1507 1502 1499 1496 1492 1488 1485 1484 1482 1481 1482 1481 1479 1476 1477 1478 1481
1584 1583 1583 1582 1580 1578 1575 1573 1571 1569 1566 1562 1558 1555 1551 1547 1543 1539 1535 1532 1528 1525 1521 1517 1513 1509 1504 1499 1496 1493 1489 1486 1483 1480 1476 1475 1475 1472 1471 1471 1472 1470 1472
1581 1580 1578 1578 1576 1575 1572 1570 1568 1566 1563 1559 1556 1553 1548 1545 1541 1538 1533 1530 1526 1522 1518 1515 1511 1508 1505 1497 1494 1490 1486 1483 1481 1478 1474 1470 1468 1465 1461 1461 1459 1461 1461
1576 1575 1574 1574 1573 1572 1569 1567 1565 1562 1559 1556 1553 1549 1545 1541 1538 1535 1532 1528 1524 1519 1515 1512 1510 1507 1504 1496 1490 1487 1484 1481 1477 1474 1470 1467 1462 1459 1455 1451 1451 1451 1451
1572 1572 1571 1569 1568 1567 1565 1562 1560 1558 1555 1552 1549 1545 1542 1538 1535 1531 1527 1524 1520 1517 1513 1509 1506 1504 1500 1494 1488 1484 1480 1477 1474 1471 1467 1463 1459 1455 1452 1447 1443 1441 1440
1568 1566 1565 1563 1561 1561 1560 1558 1555 1553 1551 1548 1544 1541 1538 1535 1532 1528 1523 1520 1517 1513 1509 1505 1501 1498 1495 1492 1484 1480 1477 1473 1468 1465 1461 1459 1455 1450 1448 1443 1438 1434 1432
1563 1560 1558 1556 1553 1552 1551 1552 1550 1548 1546 1543 1539 1536 1534 1531 1528 1524 1520 1516 1513 1509 1505 1499 1494 1491 1490 1486 1481 1476 1472 1469 1464 1460 1455 1452 1449 1445 1441 1438 1434 1429 1425
1555 1552 1548 1546 1544 1545 1543 1544 1544 1542 1540 1537 1535 1532 1530 1527 1524 1520 1516 1512 1508 1504 1499 1494 1489 1487 1483 1480 1476 1472 1469 1465 1460 1455 1450 1446 1443 1438 1435 1431 1427 1423 1421
1548 1545 1542 1538 1537 1537 1536 1535 1538 1536 1533 1532 1530 1527 1524 1522 1519 1515 1511 1507 1503 1499 1495 1491 1486 1481 1478 1473 1470 1466 1464 1460 1455 1451 1445 1441 1437 1433 1428 1425 1419 1417 1415
1541 1538 1535 1531 1529 1529 1530 1529 1531 1529 1527 1524 1523 1521 1518 1515 1512 1510 1506 1502 1498 1494 1490 1486 1482 1476 1472 1468 1465 1461 1456 1452 1448 1444 1438 1434 1430 1426 1421 1417 1414 1411 1408
1534 1531 1528 1524 1522 1522 1522 1524 1525 1523 1520 1518 1516 1514 1512 1510 1506 1503 1500 1496 1493 1489 1484 1480 1475 1470 1464 1462 1458 1454 1449 1445 1441 1435 1430 1426 1423 1418 1415 1411 1407 1404 1401
1527 1524 1521 1518 1516 1516 1517 1519 1518 1516 1514 1512 1510 1508 1506 1503 1500 1496 1491 1489 1485 1481 1477 1472 1467 1462 1458 1454 1451 1447 1443 1439 1435 1428 1423 1418 1415 1412 1408 1403 1399 1397 1395